Regional Weather Roundup
Issued by NWS Sterling, VA

Home | Current Version | Previous Version | Graphics & Text | Print | Product List | Glossary On
Versions: 1 2 3 4 5 6 7 8 9 10 11 12 13 14 15 16 17 18 19 20 21 22 23 24 25 26 27 28 29 30 31 32 33 34 35 36 37 38 39 40 41 42 43 44 45 46 47 48 49 50
316
ASUS41 KLWX 281011
RWRLWX

REGIONAL WEATHER ROUNDUP
NATIONAL WEATHER SERVICE BALTIMORE MD/WASHINGTON DC
600 AM EDT FRI APR 28 2017

Note: "FAIR" indicates few or no clouds below 12,000 feet
with no significant weather and/or obstructions to visibility.
 TC=TEMPERATURE CELSIUS

 * =Non NWS site. Station does not report precipitation (e.g. rain,
    snow, etc.), thunder, or fog.

DCZ001-MDZ009-015-VAZ040>042-051-053>054-281100-
WASHINGTON METRO

CITY           SKY/WX    TMP DP  RH WIND       PRES   REMARKS
WASHINGTON NAT PTCLDY    66  61  84 SW5       29.94R
DULLES         PTCLDY    60  58  92 CALM      29.95R
ANDREWS AFB    CLEAR     64  60  86 W8        29.92R
FT BELVOIR     CLEAR     61  58  91 W3        29.93R
QUANTICO       CLOUDY    66  62  87 NW7       29.94R
COLLEGE PARK*  CLEAR     60  58  96 CALM      29.94R
LEESBURG*      CLEAR     59  59 100 SW3       29.96R
MANASSAS*        N/A     57  55  94 CALM      29.96R FOG

$$

MDZ006>007-011-014-281100-
BALTIMORE METRO

CITY           SKY/WX    TMP DP  RH WIND       PRES   REMARKS
BWI AIRPORT    PTCLDY    63  60  90 SW5       29.93R
MD SCIENCE CTR   N/A     66  59  78 MISG      29.93R
MARTIN STATE   PTCLDY    63  63 100 CALM      29.93R FOG
ANNAPOLIS      CLEAR     63  61  93 CALM      29.91R
FORT MEADE*      N/A     57  55  94 CALM      29.96R

$$

MDZ012-015-019>023-281100-
MARYLAND EASTERN SHORE

CITY           SKY/WX    TMP DP  RH WIND       PRES   REMARKS
OCEAN CITY     LGT RAIN  67  62  84 SW9       29.95R
SALISBURY      LGT RAIN  67  65  93 S6        29.93R
BAY BRIDGE AP* CLEAR     66  63  88 W3        29.92R
CAMBRIDGE*       N/A     66  64  94 CALM      29.93R
EASTON*        PTCLDY    66  64  94 W5        29.96R

$$

MDZ017>025-281100-
SOUTHERN MARYLAND

CITY           SKY/WX    TMP DP  RH WIND       PRES   REMARKS
PATUXENT RIVER CLOUDY    67  67 100 SW9       29.93R
ST INIGOES     CLOUDY    67  64  90 CALM      29.94R
LEONARDTOWN*   CLOUDY    64  63  94 SW6       29.95R

$$

MDZ003>005-281100-
NORTH CENTRAL MARYLAND

CITY           SKY/WX    TMP DP  RH WIND       PRES   REMARKS
FREDERICK*     CLEAR     59  59 100 S3        29.97R
HAGERSTOWN APT CLEAR     62  59  90 CALM      29.95R
WESTMINSTER*   CLEAR     64  61  88 W6        29.94R

$$

MDZ501>502-281100-
WESTERN MARYLAND

CITY           SKY/WX    TMP DP  RH WIND       PRES   REMARKS
OAKLAND*       MOCLDY    48  48 100 CALM      30.02R
CUMBERLAND*    CLOUDY    59  59 100 CALM      30.02R VSB 1/4

$$

VAZ025>031-281100-
SHENANDOAH VALLEY

CITY           SKY/WX    TMP DP  RH WIND       PRES   REMARKS
WINCHESTER*    CLEAR     59  55  88 SW6       29.97R
FRONT ROYAL*   CLEAR     63  59  88 SW6       29.96R
LURAY*         FOG       55  55 100 CALM      29.98R VSB 1/2
NEW MARKET*    MOCLDY    53  52  96 CALM      29.98R VSB 1/2
STAUNTON*      FOG       49  49  99 CALM      30.01R VSB 1/2
WAYNESBORO*      N/A     53  53 100 CALM      30.00R

$$

WVZ021-048>050-054>055-281100-
EASTERN WEST VIRGINIA PANHANDLE

CITY           SKY/WX    TMP DP  RH WIND       PRES   REMARKS
MARTINSBURG    CLEAR     57  56  96 SW3       29.95R
PETERSBURG*    FOG       56  56 100 CALM      30.00R VSB<1/4

$$

VAZ036>039-050-281100-
CENTRAL FOOTHILLS

CITY           SKY/WX    TMP DP  RH WIND       PRES   REMARKS
CHARLOTTESVILL CLEAR     61  59  93 SW3       29.95R FOG
CULPEPER*      FOG       58  58 100 CALM      29.96R VSB 1/2
ORANGE*        CLEAR     55  55 100 CALM      29.95R FOG
GORDONSVILLE*  CLEAR     57  57 100 CALM      29.95R FOG
WARRENTON*     FOG       58  56  91 CALM      29.95R VSB 1

$$

VAZ055>057-281100-
NORTH AND CENTRAL PIEDMONT

CITY           SKY/WX    TMP DP  RH WIND       PRES   REMARKS
FREDERICKSBRG* CLOUDY    65  64  96 S6        29.95R
STAFFORD*      CLOUDY    64  62  95 W3        29.98R

$$

NCZ024-NYZ072-PAZ021-071-VAZ022-071-281100-
OTHER REGIONAL OBSERVATIONS

CITY           SKY/WX    TMP DP  RH WIND       PRES   REMARKS
NEW YORK CITY  CLOUDY    58  57  97 CALM      29.94R FOG
PHILADELPHIA   MOCLDY    64  62  93 SW5       29.92R
PITTSBURGH     PTCLDY    48  47  96 CALM      29.99R
ROANOKE        FOG       56  56 100 NW6       30.01S VSB 1/2
RICHMOND       CLOUDY    66  66 100 CALM      29.95R
RALEIGH        PTCLDY    70  67  90 SW6       29.99R

$$

ANZ530>537-281100-
MARINE OBSERVATIONS

STATION/POSITION TIME  TEMP    WIND        PRES
                       AIR SEA DIR/SP/G
                 (UTC) (F)     (DEG/KT/KT) (MB)
THOMAS PT LIGHT  1000   67 58  290/  6/  7   N/A
BALT KEY BRIDGE  0948   67     230/  4/  5 1013.2R
COVE POINT       0948   67     250/  5/ 10 1014.0R
LEWISETTA        0948   69 64  240/ 10/ 11 1013.5R
SOLOMONS ISLAND  0948   66 61  260/  4/  7   N/A
PINEY POINT      0948          270/  1/  2   N/A

$$





USA.gov is the U.S. government's official web portal to all federal, state and local government web resources and services.